GFSNIL_prec_precacc_084.txt.gz
Total_Precipitation_Accumulation
0.03 0.04 0.07 0.08 0.06 0.08 0.10 0.09 0.09 0.18 0.21 0.20 0.19 0.17 0.24 0.24 0.20 0.26 0.29 0.34 0.39 0.33
0.01 0.03 0.04 0.04 0.05 0.05 0.06 0.08 0.08 0.12 0.18 0.19 0.18 0.20 0.21 0.23 0.22 0.22 0.25 0.31 0.33 0.37
0.04 0.04 0.03 0.03 0.03 0.04 0.05 0.06 0.07 0.08 0.08 0.09 0.09 0.12 0.16 0.18 0.20 0.25 0.25 0.23 0.25 0.26
0.02 0.04 0.03 0.03 0.03 0.04 0.05 0.03 0.04 0.03 0.04 0.04 0.05 0.06 0.07 0.09 0.12 0.16 0.17 0.18 0.20 0.23
0.04 0.04 0.04 0.04 0.04 0.05 0.06 0.05 0.05 0.04 0.03 0.02 0.03 0.06 0.12 0.16 0.18 0.18 0.18 0.19 0.23 0.24
0.03 0.03 0.04 0.05 0.05 0.05 0.05 0.04 0.04 0.03 0.04 0.06 0.10 0.11 0.11 0.09 0.07 0.08 0.11 0.14 0.17 0.21
0.03 0.03 0.04 0.05 0.06 0.06 0.04 0.04 0.04 0.03 0.04 0.03 0.04 0.04 0.05 0.06 0.08 0.10 0.13 0.17 0.23 0.30
0.08 0.09 0.06 0.05 0.06 0.07 0.06 0.05 0.05 0.05 0.05 0.06 0.07 0.10 0.12 0.15 0.23 0.32 0.41 0.48 0.48 0.46
0.10 0.07 0.10 0.07 0.07 0.12 0.17 0.17 0.20 0.22 0.16 0.16 0.24 0.44 0.37 0.35 0.37 0.37 0.36 0.35 0.31 0.30
0.19 0.08 0.11 0.24 0.18 0.14 0.18 0.38 0.53 0.56 0.60 0.70 0.82 0.90 0.75 0.60 0.46 0.43 0.37 0.33 0.29 0.22
0.33 0.36 0.28 0.43 0.74 0.77 0.74 0.88 0.78 0.69 0.82 0.89 0.82 0.70 0.53 0.48 0.36 0.31 0.28 0.24 0.12 0.05
0.77 0.92 1.03 0.94 0.87 1.12 0.88 0.81 0.71 0.57 0.48 0.45 0.43 0.29 0.17 0.11 0.10 0.08 0.05 0.03 0.01 0.02
0.74 0.83 0.89 0.89 0.84 0.74 0.60 0.60 0.49 0.38 0.33 0.24 0.14 0.08 0.05 0.04 0.03 0.02 0.01 0.00 0.00 0.01
0.75 0.69 0.53 0.46 0.44 0.31 0.23 0.21 0.15 0.08 0.05 0.02 0.01 0.00 0.00 0.00 0.00 0.00 0.01 0.01 0.01 0.00

GFSNIL_prec_precacc_087.txt.gz
Total_Precipitation_Accumulation
0.13 0.13 0.13 0.16 0.13 0.12 0.13 0.10 0.09 0.18 0.21 0.20 0.19 0.17 0.24 0.24 0.20 0.26 0.29 0.34 0.39 0.33
0.02 0.04 0.09 0.07 0.07 0.06 0.06 0.08 0.08 0.12 0.18 0.19 0.18 0.20 0.21 0.23 0.22 0.22 0.25 0.31 0.33 0.37
0.04 0.04 0.03 0.04 0.03 0.04 0.05 0.06 0.07 0.08 0.08 0.09 0.09 0.12 0.16 0.18 0.20 0.25 0.25 0.23 0.25 0.26
0.02 0.04 0.03 0.03 0.03 0.04 0.05 0.03 0.04 0.04 0.04 0.04 0.05 0.06 0.07 0.09 0.12 0.16 0.17 0.18 0.20 0.23
0.04 0.04 0.04 0.04 0.04 0.05 0.06 0.05 0.05 0.04 0.03 0.02 0.03 0.06 0.12 0.16 0.18 0.18 0.18 0.19 0.23 0.24
0.03 0.03 0.04 0.05 0.05 0.05 0.05 0.04 0.04 0.03 0.04 0.06 0.10 0.11 0.11 0.09 0.07 0.08 0.11 0.14 0.17 0.21
0.03 0.03 0.04 0.05 0.06 0.06 0.04 0.04 0.04 0.03 0.04 0.03 0.04 0.04 0.05 0.06 0.08 0.10 0.13 0.17 0.23 0.30
0.08 0.09 0.06 0.05 0.06 0.07 0.06 0.05 0.05 0.05 0.05 0.06 0.07 0.10 0.12 0.15 0.23 0.32 0.41 0.48 0.48 0.46
0.10 0.07 0.10 0.07 0.07 0.12 0.17 0.17 0.20 0.22 0.16 0.16 0.24 0.44 0.37 0.35 0.37 0.37 0.36 0.35 0.31 0.30
0.19 0.08 0.11 0.24 0.18 0.14 0.18 0.38 0.53 0.56 0.60 0.70 0.82 0.91 0.75 0.61 0.46 0.43 0.37 0.33 0.29 0.22
0.33 0.36 0.28 0.43 0.74 0.77 0.74 0.88 0.78 0.69 0.82 0.89 0.82 0.70 0.53 0.49 0.36 0.31 0.28 0.24 0.12 0.05
0.77 0.92 1.03 0.94 0.87 1.12 0.88 0.81 0.71 0.57 0.48 0.45 0.43 0.29 0.18 0.12 0.10 0.08 0.05 0.03 0.01 0.02
0.74 0.83 0.89 0.89 0.84 0.74 0.60 0.60 0.49 0.38 0.33 0.24 0.14 0.08 0.05 0.04 0.03 0.02 0.01 0.00 0.00 0.01
0.75 0.69 0.53 0.46 0.44 0.31 0.23 0.21 0.15 0.08 0.05 0.02 0.01 0.00 0.00 0.00 0.00 0.00 0.01 0.01 0.01 0.00

GFSNIL_prec_precacc_090.txt.gz
Total_Precipitation_Accumulation
0.16 0.20 0.21 0.25 0.24 0.25 0.23 0.17 0.11 0.18 0.21 0.20 0.19 0.17 0.24 0.24 0.20 0.26 0.29 0.34 0.39 0.33
0.02 0.05 0.12 0.12 0.11 0.09 0.08 0.09 0.08 0.12 0.18 0.19 0.18 0.20 0.21 0.23 0.22 0.22 0.25 0.31 0.33 0.37
0.04 0.04 0.04 0.04 0.04 0.05 0.05 0.06 0.07 0.08 0.08 0.09 0.09 0.12 0.16 0.18 0.20 0.25 0.25 0.23 0.25 0.26
0.02 0.04 0.03 0.03 0.03 0.04 0.05 0.03 0.04 0.04 0.04 0.05 0.05 0.06 0.07 0.09 0.12 0.16 0.17 0.18 0.20 0.23
0.04 0.04 0.04 0.04 0.04 0.05 0.06 0.05 0.05 0.04 0.03 0.02 0.03 0.06 0.12 0.16 0.18 0.18 0.18 0.19 0.23 0.24
0.03 0.03 0.04 0.05 0.05 0.05 0.05 0.04 0.04 0.03 0.04 0.06 0.10 0.11 0.11 0.09 0.07 0.08 0.11 0.14 0.17 0.21
0.03 0.03 0.04 0.05 0.06 0.06 0.04 0.04 0.04 0.03 0.04 0.03 0.04 0.04 0.05 0.06 0.08 0.10 0.13 0.17 0.23 0.30
0.08 0.09 0.06 0.05 0.06 0.07 0.06 0.05 0.05 0.05 0.05 0.06 0.07 0.10 0.12 0.15 0.23 0.32 0.41 0.48 0.48 0.46
0.10 0.07 0.10 0.07 0.07 0.12 0.17 0.17 0.20 0.22 0.16 0.16 0.24 0.44 0.37 0.35 0.37 0.37 0.36 0.35 0.31 0.30
0.19 0.08 0.11 0.24 0.18 0.14 0.18 0.38 0.53 0.56 0.60 0.70 0.82 0.91 0.75 0.61 0.46 0.43 0.37 0.33 0.29 0.22
0.33 0.36 0.28 0.43 0.74 0.77 0.74 0.88 0.78 0.69 0.82 0.89 0.82 0.70 0.53 0.49 0.36 0.31 0.29 0.24 0.12 0.05
0.77 0.92 1.03 0.94 0.87 1.12 0.88 0.81 0.71 0.57 0.48 0.45 0.43 0.29 0.18 0.12 0.10 0.08 0.05 0.03 0.01 0.02
0.74 0.83 0.89 0.89 0.84 0.74 0.60 0.60 0.49 0.38 0.33 0.24 0.14 0.08 0.05 0.04 0.03 0.02 0.01 0.00 0.00 0.01
0.75 0.69 0.53 0.46 0.44 0.31 0.23 0.21 0.15 0.08 0.05 0.02 0.01 0.00 0.00 0.00 0.00 0.00 0.01 0.01 0.01 0.00

GFSNIL_prec_precacc_093.txt.gz
Total_Precipitation_Accumulation
0.19 0.23 0.26 0.31 0.33 0.34 0.34 0.29 0.21 0.24 0.23 0.20 0.19 0.17 0.24 0.24 0.20 0.26 0.29 0.34 0.39 0.33
0.02 0.05 0.12 0.12 0.12 0.11 0.11 0.12 0.10 0.12 0.18 0.19 0.18 0.20 0.21 0.23 0.22 0.22 0.25 0.31 0.33 0.37
0.04 0.04 0.04 0.04 0.04 0.05 0.05 0.06 0.07 0.08 0.08 0.09 0.09 0.12 0.16 0.18 0.20 0.25 0.25 0.23 0.25 0.26
0.02 0.04 0.03 0.03 0.03 0.04 0.05 0.03 0.04 0.04 0.04 0.05 0.05 0.06 0.07 0.09 0.12 0.16 0.17 0.18 0.20 0.23
0.04 0.04 0.04 0.04 0.04 0.05 0.06 0.05 0.05 0.04 0.03 0.02 0.03 0.06 0.12 0.16 0.18 0.18 0.18 0.19 0.23 0.24
0.03 0.03 0.04 0.05 0.05 0.05 0.05 0.04 0.04 0.03 0.04 0.06 0.10 0.11 0.11 0.09 0.07 0.08 0.11 0.14 0.17 0.21
0.03 0.03 0.04 0.05 0.06 0.06 0.04 0.04 0.04 0.03 0.04 0.03 0.04 0.04 0.05 0.06 0.08 0.10 0.13 0.17 0.23 0.30
0.08 0.09 0.06 0.05 0.06 0.07 0.06 0.05 0.05 0.05 0.05 0.06 0.07 0.10 0.12 0.15 0.23 0.32 0.41 0.48 0.48 0.46
0.10 0.07 0.10 0.07 0.07 0.12 0.17 0.17 0.20 0.22 0.16 0.16 0.24 0.44 0.37 0.35 0.37 0.37 0.36 0.35 0.31 0.30
0.19 0.08 0.11 0.24 0.18 0.14 0.18 0.38 0.53 0.56 0.60 0.70 0.82 0.91 0.75 0.61 0.46 0.43 0.37 0.33 0.29 0.22
0.33 0.36 0.28 0.43 0.74 0.77 0.74 0.88 0.78 0.69 0.82 0.89 0.82 0.70 0.53 0.49 0.36 0.31 0.29 0.24 0.12 0.05
0.77 0.92 1.03 0.94 0.87 1.12 0.88 0.81 0.71 0.57 0.48 0.45 0.43 0.29 0.18 0.12 0.10 0.08 0.05 0.03 0.01 0.02
0.74 0.83 0.89 0.89 0.84 0.74 0.60 0.60 0.49 0.38 0.33 0.24 0.14 0.08 0.05 0.04 0.03 0.02 0.01 0.00 0.00 0.01
0.75 0.69 0.53 0.46 0.44 0.31 0.23 0.21 0.15 0.08 0.05 0.02 0.01 0.00 0.00 0.00 0.00 0.00 0.01 0.01 0.01 0.00

GFSNIL_prec_precacc_096.txt.gz
Total_Precipitation_Accumulation
0.23 0.26 0.31 0.34 0.36 0.42 0.43 0.37 0.28 0.30 0.28 0.24 0.21 0.17 0.24 0.24 0.20 0.26 0.29 0.34 0.39 0.33
0.03 0.07 0.14 0.12 0.12 0.12 0.13 0.16 0.14 0.15 0.19 0.20 0.18 0.20 0.21 0.23 0.22 0.22 0.25 0.31 0.33 0.37
0.04 0.04 0.04 0.04 0.04 0.05 0.05 0.08 0.10 0.10 0.09 0.09 0.09 0.12 0.16 0.18 0.20 0.25 0.25 0.23 0.25 0.26
0.02 0.04 0.03 0.03 0.03 0.04 0.05 0.04 0.04 0.04 0.04 0.05 0.05 0.06 0.07 0.09 0.12 0.16 0.17 0.18 0.20 0.23
0.04 0.04 0.04 0.04 0.04 0.05 0.06 0.05 0.05 0.04 0.03 0.02 0.03 0.06 0.12 0.16 0.18 0.18 0.18 0.19 0.23 0.24
0.03 0.03 0.04 0.05 0.05 0.05 0.05 0.04 0.04 0.03 0.04 0.06 0.10 0.11 0.11 0.09 0.07 0.08 0.11 0.14 0.17 0.21
0.03 0.03 0.04 0.05 0.06 0.06 0.04 0.04 0.04 0.03 0.04 0.03 0.04 0.04 0.05 0.06 0.08 0.10 0.13 0.17 0.23 0.30
0.08 0.09 0.06 0.05 0.06 0.07 0.06 0.05 0.05 0.05 0.05 0.06 0.07 0.10 0.12 0.15 0.23 0.32 0.41 0.48 0.48 0.46
0.10 0.07 0.10 0.07 0.07 0.12 0.17 0.17 0.20 0.22 0.16 0.16 0.24 0.44 0.37 0.35 0.37 0.37 0.36 0.35 0.31 0.30
0.19 0.08 0.11 0.24 0.18 0.14 0.18 0.38 0.53 0.56 0.60 0.70 0.82 0.91 0.75 0.61 0.46 0.43 0.37 0.33 0.29 0.22
0.33 0.36 0.28 0.43 0.74 0.77 0.74 0.88 0.78 0.69 0.82 0.89 0.82 0.70 0.53 0.49 0.36 0.31 0.29 0.24 0.12 0.05
0.77 0.92 1.03 0.94 0.87 1.12 0.88 0.81 0.71 0.57 0.48 0.45 0.43 0.29 0.18 0.12 0.10 0.08 0.05 0.03 0.01 0.02
0.74 0.83 0.89 0.89 0.84 0.74 0.60 0.60 0.49 0.38 0.33 0.24 0.14 0.08 0.05 0.04 0.03 0.02 0.01 0.00 0.00 0.01
0.75 0.69 0.53 0.46 0.44 0.31 0.23 0.21 0.15 0.08 0.05 0.02 0.01 0.00 0.00 0.00 0.00 0.00 0.01 0.01 0.01 0.00

GFSNIL_prec_precacc_099.txt.gz
Total_Precipitation_Accumulation
0.29 0.40 0.48 0.48 0.46 0.53 0.59 0.54 0.39 0.39 0.35 0.31 0.26 0.21 0.26 0.25 0.20 0.26 0.29 0.34 0.39 0.33
0.03 0.08 0.17 0.14 0.12 0.14 0.15 0.20 0.22 0.27 0.28 0.26 0.22 0.21 0.23 0.23 0.22 0.22 0.25 0.31 0.33 0.37
0.04 0.04 0.04 0.04 0.05 0.07 0.06 0.09 0.12 0.14 0.16 0.11 0.10 0.13 0.16 0.18 0.20 0.25 0.25 0.23 0.25 0.26
0.02 0.04 0.03 0.03 0.03 0.04 0.05 0.04 0.05 0.05 0.06 0.06 0.06 0.06 0.07 0.09 0.12 0.16 0.17 0.18 0.20 0.23
0.04 0.04 0.04 0.04 0.04 0.05 0.06 0.05 0.05 0.06 0.05 0.05 0.05 0.07 0.12 0.16 0.18 0.18 0.18 0.19 0.23 0.24
0.03 0.03 0.04 0.05 0.05 0.05 0.05 0.04 0.04 0.03 0.05 0.07 0.10 0.11 0.11 0.09 0.07 0.08 0.11 0.14 0.17 0.21
0.03 0.03 0.04 0.05 0.06 0.06 0.04 0.04 0.04 0.03 0.04 0.04 0.04 0.04 0.05 0.06 0.08 0.10 0.13 0.17 0.23 0.30
0.08 0.09 0.06 0.05 0.06 0.07 0.06 0.05 0.05 0.05 0.05 0.06 0.07 0.10 0.12 0.15 0.23 0.32 0.41 0.48 0.48 0.46
0.10 0.07 0.10 0.07 0.07 0.12 0.17 0.17 0.20 0.22 0.16 0.16 0.24 0.44 0.37 0.35 0.37 0.37 0.36 0.35 0.31 0.30
0.19 0.08 0.11 0.24 0.18 0.14 0.18 0.38 0.53 0.56 0.60 0.70 0.82 0.91 0.75 0.61 0.46 0.43 0.37 0.33 0.29 0.22
0.33 0.36 0.28 0.43 0.74 0.77 0.74 0.88 0.78 0.69 0.82 0.89 0.82 0.70 0.53 0.49 0.36 0.31 0.29 0.24 0.12 0.05
0.77 0.92 1.03 0.94 0.87 1.12 0.88 0.81 0.71 0.57 0.48 0.45 0.43 0.29 0.18 0.12 0.10 0.08 0.05 0.03 0.01 0.02
0.74 0.83 0.89 0.89 0.84 0.74 0.60 0.60 0.49 0.38 0.33 0.24 0.14 0.08 0.05 0.04 0.03 0.02 0.01 0.00 0.00 0.01
0.75 0.69 0.53 0.46 0.44 0.31 0.23 0.21 0.15 0.08 0.05 0.02 0.01 0.00 0.00 0.00 0.00 0.00 0.01 0.01 0.01 0.00

GFSNIL_prec_precacc_102.txt.gz
Total_Precipitation_Accumulation
0.47 0.59 0.67 0.62 0.58 0.62 0.69 0.72 0.56 0.49 0.44 0.38 0.30 0.24 0.29 0.26 0.20 0.26 0.29 0.34 0.39 0.33
0.06 0.10 0.26 0.26 0.21 0.23 0.32 0.36 0.37 0.42 0.43 0.35 0.28 0.25 0.24 0.24 0.23 0.22 0.25 0.31 0.33 0.37
0.04 0.06 0.07 0.06 0.11 0.22 0.18 0.16 0.16 0.19 0.20 0.15 0.16 0.18 0.19 0.21 0.25 0.28 0.26 0.23 0.25 0.26
0.02 0.04 0.03 0.04 0.05 0.07 0.06 0.04 0.05 0.05 0.07 0.08 0.06 0.07 0.08 0.10 0.13 0.16 0.17 0.18 0.20 0.23
0.04 0.04 0.04 0.04 0.04 0.05 0.06 0.05 0.05 0.06 0.05 0.06 0.06 0.08 0.14 0.19 0.19 0.18 0.18 0.19 0.23 0.24
0.03 0.03 0.04 0.05 0.05 0.05 0.05 0.04 0.04 0.03 0.05 0.07 0.11 0.13 0.13 0.12 0.09 0.08 0.11 0.14 0.17 0.21
0.03 0.03 0.04 0.05 0.06 0.06 0.04 0.04 0.04 0.03 0.04 0.04 0.04 0.05 0.06 0.07 0.08 0.10 0.13 0.17 0.23 0.30
0.08 0.09 0.06 0.05 0.06 0.07 0.06 0.05 0.05 0.05 0.05 0.06 0.07 0.10 0.12 0.16 0.24 0.33 0.41 0.48 0.48 0.46
0.10 0.07 0.10 0.07 0.07 0.12 0.17 0.17 0.20 0.22 0.16 0.16 0.24 0.44 0.37 0.35 0.37 0.37 0.36 0.35 0.31 0.30
0.19 0.08 0.11 0.24 0.18 0.14 0.18 0.38 0.53 0.56 0.60 0.70 0.82 0.91 0.75 0.61 0.46 0.43 0.37 0.33 0.29 0.22
0.33 0.36 0.28 0.43 0.74 0.77 0.74 0.88 0.78 0.69 0.82 0.89 0.82 0.70 0.53 0.49 0.36 0.31 0.29 0.24 0.12 0.05
0.77 0.92 1.03 0.94 0.87 1.12 0.88 0.81 0.71 0.57 0.48 0.45 0.43 0.29 0.18 0.12 0.10 0.08 0.05 0.03 0.01 0.02
0.74 0.83 0.89 0.89 0.84 0.74 0.60 0.60 0.49 0.38 0.33 0.24 0.14 0.08 0.05 0.04 0.03 0.02 0.01 0.00 0.00 0.01
0.75 0.69 0.53 0.46 0.44 0.31 0.23 0.21 0.15 0.08 0.05 0.02 0.01 0.00 0.00 0.00 0.00 0.00 0.01 0.01 0.01 0.00

GFSNIL_prec_precacc_105.txt.gz
Total_Precipitation_Accumulation
0.59 0.76 0.81 0.72 0.62 0.66 0.72 0.76 0.61 0.54 0.49 0.44 0.35 0.29 0.34 0.29 0.22 0.27 0.30 0.35 0.40 0.33
0.33 0.32 0.43 0.34 0.23 0.24 0.32 0.38 0.46 0.48 0.52 0.48 0.38 0.32 0.30 0.28 0.24 0.22 0.25 0.31 0.33 0.37
0.07 0.08 0.10 0.12 0.19 0.26 0.22 0.19 0.19 0.23 0.23 0.18 0.19 0.21 0.21 0.22 0.26 0.32 0.29 0.25 0.26 0.26
0.02 0.04 0.03 0.04 0.05 0.09 0.09 0.08 0.08 0.08 0.08 0.08 0.07 0.08 0.08 0.10 0.14 0.21 0.21 0.20 0.21 0.23
0.04 0.04 0.04 0.04 0.04 0.05 0.06 0.05 0.05 0.06 0.05 0.06 0.06 0.09 0.15 0.20 0.21 0.21 0.22 0.19 0.23 0.25
0.03 0.03 0.04 0.05 0.05 0.05 0.05 0.04 0.04 0.03 0.05 0.07 0.11 0.13 0.14 0.14 0.11 0.12 0.14 0.15 0.18 0.21
0.03 0.03 0.04 0.05 0.06 0.06 0.04 0.04 0.04 0.03 0.04 0.04 0.04 0.05 0.06 0.08 0.11 0.14 0.16 0.20 0.24 0.30
0.08 0.09 0.06 0.05 0.06 0.07 0.06 0.05 0.05 0.05 0.05 0.06 0.07 0.10 0.12 0.16 0.24 0.35 0.43 0.50 0.50 0.47
0.10 0.07 0.10 0.07 0.07 0.12 0.17 0.17 0.20 0.22 0.16 0.16 0.24 0.44 0.37 0.35 0.37 0.37 0.37 0.35 0.31 0.31
0.19 0.08 0.11 0.24 0.18 0.14 0.18 0.38 0.53 0.56 0.60 0.70 0.82 0.91 0.75 0.61 0.46 0.43 0.37 0.33 0.29 0.22
0.33 0.36 0.28 0.43 0.74 0.77 0.74 0.88 0.78 0.69 0.82 0.89 0.82 0.70 0.53 0.49 0.36 0.31 0.29 0.24 0.12 0.05
0.77 0.92 1.03 0.94 0.87 1.12 0.88 0.81 0.71 0.57 0.48 0.45 0.43 0.29 0.18 0.12 0.10 0.08 0.05 0.03 0.01 0.02
0.74 0.83 0.89 0.89 0.84 0.74 0.60 0.60 0.49 0.38 0.33 0.24 0.14 0.08 0.05 0.04 0.03 0.02 0.01 0.00 0.00 0.01
0.75 0.69 0.53 0.46 0.44 0.31 0.23 0.21 0.15 0.08 0.05 0.02 0.01 0.00 0.00 0.00 0.00 0.00 0.01 0.01 0.01 0.00

GFSNIL_prec_precacc_111.txt.gz
Total_Precipitation_Accumulation
1.51 1.42 1.34 1.11 0.96 0.95 1.02 1.10 0.90 0.74 0.67 0.61 0.47 0.38 0.42 0.33 0.25 0.31 0.35 0.39 0.43 0.36
0.82 0.87 0.89 0.68 0.49 0.44 0.45 0.51 0.60 0.59 0.62 0.57 0.45 0.37 0.35 0.32 0.28 0.26 0.29 0.36 0.38 0.42
0.37 0.38 0.39 0.36 0.32 0.40 0.38 0.31 0.28 0.27 0.26 0.22 0.22 0.25 0.24 0.26 0.28 0.33 0.30 0.27 0.28 0.29
0.05 0.07 0.08 0.09 0.11 0.13 0.16 0.12 0.13 0.10 0.10 0.10 0.09 0.11 0.11 0.12 0.16 0.22 0.23 0.23 0.24 0.26
0.04 0.04 0.04 0.04 0.04 0.05 0.06 0.05 0.06 0.07 0.07 0.08 0.08 0.11 0.18 0.24 0.25 0.26 0.27 0.26 0.32 0.34
0.03 0.03 0.04 0.05 0.05 0.05 0.05 0.04 0.04 0.03 0.05 0.07 0.11 0.14 0.16 0.16 0.15 0.18 0.24 0.27 0.31 0.35
0.03 0.03 0.04 0.05 0.06 0.06 0.04 0.04 0.04 0.03 0.04 0.04 0.04 0.05 0.06 0.09 0.12 0.16 0.20 0.25 0.31 0.39
0.08 0.09 0.06 0.05 0.06 0.07 0.06 0.05 0.05 0.05 0.05 0.06 0.07 0.10 0.12 0.16 0.24 0.35 0.44 0.51 0.52 0.50
0.10 0.07 0.10 0.07 0.07 0.12 0.17 0.17 0.20 0.22 0.16 0.16 0.24 0.44 0.37 0.35 0.37 0.37 0.37 0.36 0.31 0.31
0.19 0.08 0.11 0.24 0.18 0.14 0.18 0.38 0.53 0.56 0.60 0.70 0.82 0.91 0.75 0.61 0.46 0.43 0.37 0.33 0.29 0.22
0.33 0.36 0.28 0.43 0.74 0.77 0.74 0.88 0.78 0.69 0.82 0.89 0.82 0.70 0.53 0.49 0.36 0.31 0.29 0.24 0.12 0.05
0.77 0.92 1.03 0.94 0.87 1.12 0.88 0.81 0.71 0.57 0.48 0.45 0.43 0.29 0.18 0.12 0.10 0.08 0.05 0.03 0.01 0.02
0.74 0.83 0.89 0.89 0.84 0.74 0.60 0.60 0.49 0.38 0.33 0.24 0.14 0.08 0.05 0.05 0.03 0.02 0.01 0.00 0.00 0.01
0.75 0.69 0.53 0.46 0.44 0.31 0.23 0.21 0.15 0.08 0.05 0.02 0.01 0.00 0.00 0.00 0.01 0.01 0.02 0.01 0.01 0.00

GFSNIL_prec_precacc_114.txt.gz
Total_Precipitation_Accumulation
1.61 1.54 1.54 1.34 1.35 1.24 1.20 1.26 1.02 0.83 0.78 0.70 0.55 0.46 0.50 0.42 0.33 0.38 0.41 0.44 0.45 0.37
1.08 1.17 1.25 1.05 0.81 0.70 0.67 0.67 0.76 0.70 0.70 0.66 0.53 0.44 0.39 0.35 0.31 0.30 0.32 0.38 0.39 0.43
0.47 0.45 0.48 0.47 0.42 0.48 0.48 0.41 0.39 0.36 0.31 0.26 0.26 0.29 0.26 0.27 0.31 0.37 0.32 0.28 0.29 0.31
0.12 0.14 0.13 0.15 0.17 0.19 0.24 0.20 0.20 0.16 0.15 0.13 0.11 0.13 0.12 0.13 0.17 0.24 0.25 0.24 0.25 0.26
0.04 0.05 0.04 0.04 0.05 0.06 0.07 0.06 0.06 0.07 0.08 0.09 0.10 0.13 0.20 0.26 0.27 0.29 0.30 0.29 0.34 0.36
0.03 0.03 0.04 0.05 0.05 0.05 0.05 0.04 0.04 0.03 0.05 0.07 0.11 0.14 0.16 0.16 0.15 0.18 0.24 0.27 0.32 0.36
0.03 0.03 0.04 0.05 0.06 0.06 0.04 0.04 0.04 0.03 0.04 0.04 0.04 0.05 0.06 0.09 0.12 0.16 0.20 0.25 0.31 0.39
0.08 0.09 0.06 0.05 0.06 0.07 0.06 0.05 0.05 0.05 0.05 0.06 0.07 0.10 0.12 0.16 0.24 0.35 0.44 0.51 0.52 0.50
0.10 0.07 0.10 0.07 0.07 0.12 0.17 0.17 0.20 0.22 0.16 0.16 0.24 0.44 0.37 0.35 0.37 0.37 0.37 0.36 0.31 0.31
0.19 0.08 0.11 0.24 0.18 0.14 0.18 0.38 0.53 0.56 0.60 0.70 0.82 0.91 0.75 0.61 0.46 0.43 0.37 0.33 0.29 0.22
0.33 0.36 0.28 0.43 0.74 0.77 0.74 0.88 0.78 0.69 0.82 0.89 0.82 0.70 0.53 0.49 0.36 0.31 0.29 0.24 0.12 0.05
0.77 0.92 1.03 0.94 0.87 1.12 0.88 0.81 0.71 0.57 0.48 0.45 0.43 0.29 0.18 0.12 0.10 0.08 0.05 0.03 0.01 0.02
0.74 0.83 0.89 0.89 0.84 0.74 0.60 0.60 0.49 0.38 0.33 0.24 0.14 0.08 0.05 0.05 0.03 0.02 0.01 0.00 0.00 0.02
0.75 0.69 0.53 0.46 0.44 0.31 0.23 0.21 0.15 0.08 0.05 0.02 0.01 0.00 0.00 0.00 0.01 0.01 0.02 0.02 0.01 0.01

GFSNIL_prec_precacc_117.txt.gz
Total_Precipitation_Accumulation
1.62 1.54 1.54 1.35 1.36 1.26 1.20 1.28 1.05 0.91 1.12 1.15 0.84 0.62 0.56 0.47 0.39 0.44 0.46 0.48 0.48 0.41
1.14 1.24 1.29 1.11 0.87 0.81 0.83 0.81 0.83 0.77 0.74 0.72 0.63 0.56 0.47 0.41 0.35 0.33 0.35 0.41 0.42 0.46
0.68 0.61 0.62 0.63 0.68 0.61 0.61 0.62 0.56 0.46 0.39 0.35 0.34 0.37 0.37 0.35 0.36 0.42 0.34 0.30 0.31 0.33
0.24 0.21 0.17 0.18 0.27 0.30 0.37 0.35 0.34 0.41 0.43 0.30 0.27 0.30 0.26 0.24 0.26 0.34 0.33 0.29 0.27 0.28
0.17 0.14 0.13 0.08 0.11 0.14 0.14 0.15 0.13 0.13 0.15 0.18 0.18 0.21 0.29 0.35 0.31 0.31 0.31 0.30 0.35 0.37
0.08 0.05 0.07 0.07 0.06 0.05 0.05 0.04 0.04 0.03 0.05 0.07 0.11 0.14 0.16 0.17 0.16 0.18 0.24 0.27 0.32 0.36
0.03 0.03 0.04 0.05 0.06 0.06 0.04 0.04 0.04 0.03 0.04 0.04 0.04 0.05 0.06 0.09 0.12 0.16 0.20 0.25 0.31 0.39
0.08 0.09 0.06 0.05 0.06 0.07 0.06 0.05 0.05 0.05 0.05 0.06 0.07 0.10 0.12 0.16 0.24 0.35 0.44 0.51 0.52 0.50
0.10 0.07 0.10 0.07 0.07 0.12 0.17 0.17 0.20 0.22 0.16 0.16 0.24 0.44 0.37 0.35 0.37 0.37 0.37 0.36 0.31 0.31
0.19 0.08 0.11 0.24 0.18 0.14 0.18 0.38 0.53 0.56 0.60 0.70 0.82 0.91 0.75 0.61 0.46 0.43 0.37 0.33 0.29 0.22
0.33 0.36 0.28 0.43 0.74 0.77 0.74 0.88 0.78 0.69 0.82 0.89 0.82 0.70 0.53 0.49 0.36 0.31 0.29 0.24 0.12 0.05
0.77 0.92 1.03 0.94 0.87 1.12 0.88 0.81 0.71 0.57 0.48 0.45 0.43 0.29 0.18 0.12 0.10 0.08 0.05 0.03 0.01 0.02
0.74 0.83 0.89 0.89 0.84 0.74 0.60 0.60 0.49 0.38 0.33 0.24 0.14 0.08 0.05 0.05 0.03 0.02 0.01 0.00 0.00 0.02
0.75 0.69 0.53 0.46 0.44 0.31 0.23 0.21 0.15 0.08 0.05 0.02 0.01 0.00 0.00 0.00 0.01 0.01 0.02 0.02 0.01 0.01

GFSNIL_prec_precacc_120.txt.gz
Total_Precipitation_Accumulation
1.64 1.56 1.55 1.36 1.36 1.26 1.20 1.28 1.05 0.91 1.13 1.17 0.92 0.71 0.70 0.58 0.43 0.47 0.49 0.52 0.54 0.47
1.17 1.24 1.29 1.11 0.87 0.82 0.84 0.84 0.86 0.78 0.75 0.73 0.68 0.72 0.69 0.60 0.47 0.41 0.41 0.48 0.52 0.54
0.77 0.67 0.72 0.75 0.84 0.77 0.72 0.76 0.80 0.68 0.47 0.39 0.37 0.42 0.43 0.44 0.48 0.55 0.47 0.42 0.41 0.42
0.52 0.55 0.34 0.37 0.53 0.52 0.56 0.47 0.41 0.54 0.57 0.36 0.32 0.39 0.35 0.34 0.36 0.42 0.44 0.42 0.39 0.33
0.43 0.42 0.24 0.21 0.25 0.26 0.29 0.29 0.23 0.20 0.25 0.33 0.28 0.28 0.37 0.44 0.40 0.35 0.35 0.33 0.39 0.39
0.21 0.17 0.16 0.15 0.12 0.07 0.08 0.07 0.06 0.05 0.06 0.07 0.12 0.15 0.17 0.19 0.19 0.22 0.26 0.28 0.32 0.36
0.04 0.03 0.05 0.06 0.06 0.06 0.04 0.04 0.04 0.03 0.04 0.04 0.04 0.05 0.06 0.09 0.12 0.16 0.20 0.25 0.31 0.39
0.08 0.09 0.06 0.05 0.06 0.07 0.06 0.05 0.05 0.05 0.05 0.06 0.07 0.10 0.12 0.16 0.24 0.35 0.44 0.51 0.52 0.50
0.10 0.07 0.10 0.07 0.07 0.12 0.17 0.17 0.20 0.22 0.16 0.16 0.24 0.44 0.37 0.35 0.37 0.37 0.37 0.36 0.31 0.31
0.19 0.08 0.11 0.24 0.18 0.14 0.18 0.38 0.53 0.56 0.60 0.70 0.82 0.91 0.75 0.61 0.46 0.43 0.37 0.33 0.29 0.22
0.33 0.36 0.28 0.43 0.74 0.77 0.74 0.88 0.78 0.69 0.82 0.89 0.82 0.70 0.53 0.49 0.36 0.31 0.29 0.24 0.12 0.05
0.77 0.92 1.03 0.94 0.87 1.12 0.88 0.81 0.71 0.57 0.48 0.45 0.43 0.29 0.18 0.12 0.10 0.08 0.05 0.03 0.01 0.02
0.74 0.83 0.89 0.89 0.84 0.74 0.60 0.60 0.49 0.38 0.33 0.24 0.14 0.08 0.05 0.05 0.03 0.02 0.01 0.00 0.00 0.02
0.75 0.69 0.53 0.46 0.44 0.31 0.23 0.21 0.15 0.08 0.05 0.02 0.01 0.00 0.00 0.00 0.01 0.01 0.02 0.02 0.01 0.01

GFSNIL_prec_precacc_123.txt.gz
Total_Precipitation_Accumulation
1.64 1.57 1.56 1.37 1.37 1.27 1.22 1.30 1.06 0.92 1.13 1.18 0.92 0.71 0.72 0.61 0.46 0.49 0.50 0.52 0.55 0.49
1.21 1.26 1.30 1.12 0.88 0.83 0.86 0.85 0.87 0.78 0.75 0.73 0.69 0.73 0.70 0.66 0.56 0.46 0.44 0.50 0.53 0.56
0.77 0.69 0.73 0.78 0.85 0.80 0.73 0.77 0.80 0.72 0.54 0.44 0.39 0.43 0.44 0.46 0.50 0.58 0.50 0.45 0.46 0.48
0.54 0.61 0.35 0.38 0.55 0.56 0.64 0.61 0.48 0.62 0.75 0.61 0.45 0.45 0.42 0.38 0.40 0.48 0.51 0.49 0.45 0.43
0.53 0.84 0.59 0.42 0.37 0.43 0.50 0.58 0.47 0.35 0.36 0.45 0.43 0.37 0.45 0.55 0.46 0.40 0.41 0.38 0.43 0.43
0.47 0.60 0.52 0.46 0.32 0.23 0.22 0.23 0.20 0.14 0.13 0.15 0.16 0.19 0.20 0.20 0.21 0.24 0.30 0.33 0.37 0.40
0.11 0.15 0.15 0.14 0.13 0.15 0.10 0.09 0.07 0.06 0.08 0.08 0.05 0.05 0.06 0.09 0.12 0.16 0.20 0.25 0.31 0.39
0.09 0.09 0.06 0.08 0.07 0.07 0.06 0.05 0.05 0.05 0.05 0.06 0.07 0.10 0.12 0.16 0.24 0.35 0.44 0.51 0.52 0.50
0.10 0.07 0.10 0.07 0.07 0.12 0.17 0.17 0.20 0.22 0.16 0.16 0.24 0.44 0.37 0.35 0.37 0.37 0.37 0.36 0.31 0.31
0.19 0.08 0.11 0.24 0.18 0.14 0.18 0.38 0.53 0.56 0.60 0.70 0.82 0.91 0.75 0.61 0.46 0.43 0.37 0.33 0.29 0.22
0.33 0.36 0.28 0.43 0.74 0.77 0.74 0.88 0.78 0.69 0.82 0.89 0.82 0.70 0.53 0.49 0.36 0.31 0.29 0.24 0.12 0.05
0.77 0.92 1.03 0.94 0.87 1.12 0.88 0.81 0.71 0.57 0.48 0.45 0.43 0.29 0.18 0.12 0.10 0.08 0.05 0.03 0.01 0.02
0.74 0.83 0.89 0.89 0.84 0.74 0.60 0.60 0.49 0.38 0.33 0.24 0.14 0.08 0.05 0.05 0.03 0.02 0.01 0.00 0.00 0.02
0.75 0.69 0.53 0.46 0.44 0.31 0.23 0.21 0.15 0.08 0.05 0.02 0.01 0.00 0.00 0.00 0.01 0.01 0.02 0.02 0.01 0.01

GFSNIL_prec_precacc_126.txt.gz
Total_Precipitation_Accumulation
1.64 1.57 1.56 1.37 1.37 1.30 1.25 1.35 1.11 0.95 1.17 1.19 0.92 0.71 0.72 0.62 0.47 0.50 0.52 0.55 0.60 0.54
1.23 1.28 1.32 1.13 0.89 0.85 0.90 0.88 0.89 0.79 0.77 0.77 0.70 0.74 0.71 0.67 0.56 0.48 0.48 0.57 0.63 0.65
0.77 0.69 0.74 0.80 0.88 0.82 0.76 0.79 0.83 0.73 0.63 0.47 0.40 0.44 0.47 0.47 0.51 0.59 0.52 0.48 0.50 0.53
0.55 0.62 0.36 0.40 0.58 0.59 0.66 0.62 0.49 0.62 0.76 0.63 0.47 0.48 0.50 0.51 0.56 0.58 0.54 0.53 0.49 0.48
0.55 0.85 0.60 0.44 0.39 0.45 0.53 0.61 0.50 0.38 0.44 0.62 0.67 0.68 0.66 0.82 0.75 0.56 0.50 0.46 0.50 0.49
0.60 0.68 0.64 0.68 0.51 0.28 0.27 0.31 0.34 0.36 0.34 0.33 0.40 0.49 0.46 0.36 0.39 0.45 0.40 0.37 0.40 0.43
0.19 0.22 0.28 0.34 0.37 0.40 0.25 0.23 0.26 0.29 0.30 0.28 0.18 0.18 0.11 0.11 0.12 0.17 0.20 0.25 0.31 0.39
0.15 0.16 0.15 0.27 0.19 0.19 0.21 0.09 0.08 0.08 0.07 0.10 0.10 0.12 0.12 0.16 0.24 0.35 0.44 0.51 0.52 0.50
0.10 0.07 0.10 0.08 0.07 0.12 0.17 0.17 0.20 0.22 0.16 0.16 0.24 0.44 0.37 0.35 0.37 0.37 0.37 0.36 0.31 0.31
0.19 0.08 0.11 0.24 0.18 0.14 0.18 0.38 0.53 0.56 0.60 0.70 0.82 0.91 0.75 0.61 0.46 0.43 0.37 0.33 0.29 0.22
0.33 0.36 0.28 0.43 0.74 0.77 0.74 0.88 0.78 0.69 0.82 0.89 0.82 0.70 0.53 0.49 0.36 0.31 0.29 0.24 0.12 0.05
0.77 0.92 1.03 0.94 0.87 1.12 0.88 0.81 0.71 0.57 0.48 0.45 0.43 0.29 0.18 0.12 0.10 0.08 0.05 0.03 0.01 0.02
0.74 0.83 0.89 0.89 0.84 0.74 0.60 0.60 0.49 0.38 0.33 0.24 0.14 0.08 0.05 0.05 0.03 0.02 0.01 0.00 0.00 0.02
0.75 0.69 0.53 0.46 0.44 0.31 0.23 0.21 0.15 0.08 0.05 0.02 0.01 0.00 0.00 0.00 0.01 0.01 0.02 0.02 0.01 0.01

GFSNIL_prec_precacc_132.txt.gz
Total_Precipitation_Accumulation
1.64 1.57 1.56 1.37 1.38 1.30 1.28 1.41 1.21 1.05 1.32 1.41 1.12 0.86 0.85 0.69 0.51 0.53 0.52 0.56 0.61 0.56
1.23 1.28 1.32 1.13 0.90 0.85 0.92 0.94 0.94 0.84 0.80 0.81 0.74 0.81 0.82 0.76 0.62 0.51 0.49 0.57 0.64 0.69
0.78 0.69 0.74 0.81 0.89 0.83 0.77 0.82 0.88 0.75 0.65 0.50 0.42 0.46 0.49 0.50 0.55 0.62 0.54 0.50 0.54 0.58
0.55 0.62 0.37 0.40 0.58 0.61 0.69 0.65 0.54 0.67 0.82 0.68 0.51 0.50 0.52 0.52 0.58 0.69 0.66 0.64 0.65 0.65
0.55 0.85 0.62 0.46 0.40 0.46 0.54 0.62 0.51 0.39 0.45 0.62 0.68 0.69 0.69 0.85 0.80 0.69 0.74 0.80 0.86 0.82
0.60 0.70 0.64 0.69 0.52 0.30 0.28 0.32 0.35 0.36 0.35 0.34 0.40 0.51 0.68 0.72 0.72 0.76 0.77 0.69 0.67 0.72
0.25 0.28 0.38 0.45 0.53 0.54 0.33 0.26 0.27 0.31 0.34 0.35 0.23 0.27 0.29 0.28 0.36 0.41 0.47 0.49 0.47 0.49
0.19 0.21 0.22 0.36 0.28 0.33 0.42 0.24 0.16 0.15 0.13 0.18 0.20 0.33 0.28 0.20 0.25 0.36 0.47 0.55 0.53 0.51
0.10 0.07 0.10 0.09 0.07 0.14 0.19 0.18 0.21 0.22 0.16 0.16 0.27 0.53 0.39 0.35 0.37 0.37 0.37 0.36 0.31 0.31
0.19 0.08 0.11 0.24 0.18 0.14 0.18 0.38 0.53 0.56 0.60 0.70 0.82 0.91 0.75 0.61 0.46 0.43 0.37 0.33 0.29 0.22
0.33 0.36 0.28 0.43 0.74 0.77 0.74 0.88 0.78 0.69 0.82 0.89 0.82 0.70 0.53 0.49 0.36 0.31 0.29 0.24 0.12 0.05
0.77 0.92 1.03 0.94 0.87 1.12 0.88 0.81 0.71 0.57 0.48 0.45 0.43 0.29 0.18 0.12 0.10 0.08 0.05 0.03 0.01 0.02
0.74 0.83 0.89 0.89 0.84 0.74 0.60 0.60 0.49 0.38 0.33 0.24 0.14 0.08 0.05 0.05 0.03 0.02 0.01 0.00 0.00 0.02
0.75 0.69 0.53 0.46 0.44 0.31 0.23 0.21 0.15 0.08 0.05 0.02 0.01 0.00 0.00 0.00 0.01 0.01 0.02 0.02 0.01 0.01

GFSNIL_prec_precacc_138.txt.gz
Total_Precipitation_Accumulation
1.64 1.57 1.56 1.37 1.38 1.31 1.28 1.41 1.21 1.05 1.32 1.41 1.12 0.86 0.85 0.72 0.55 0.61 0.61 0.65 0.69 0.67
1.23 1.28 1.32 1.13 0.90 0.86 0.92 0.94 0.94 0.84 0.80 0.81 0.74 0.81 0.84 0.79 0.69 0.58 0.55 0.62 0.68 0.71
0.78 0.69 0.74 0.81 0.89 0.83 0.77 0.83 0.88 0.75 0.65 0.50 0.42 0.46 0.51 0.54 0.62 0.70 0.63 0.58 0.61 0.62
0.55 0.62 0.37 0.40 0.58 0.61 0.69 0.65 0.54 0.67 0.82 0.68 0.53 0.52 0.53 0.53 0.58 0.70 0.68 0.65 0.66 0.66
0.55 0.85 0.62 0.46 0.40 0.47 0.55 0.62 0.51 0.40 0.45 0.62 0.68 0.69 0.69 0.85 0.80 0.69 0.74 0.80 0.87 0.82
0.60 0.70 0.64 0.69 0.53 0.31 0.28 0.33 0.35 0.36 0.35 0.34 0.40 0.51 0.68 0.72 0.72 0.76 0.77 0.69 0.68 0.73
0.25 0.28 0.38 0.45 0.54 0.55 0.34 0.27 0.28 0.31 0.35 0.35 0.23 0.27 0.29 0.28 0.36 0.41 0.47 0.49 0.47 0.50
0.19 0.21 0.22 0.36 0.28 0.34 0.42 0.25 0.18 0.17 0.16 0.23 0.24 0.34 0.28 0.21 0.26 0.37 0.48 0.56 0.54 0.51
0.10 0.07 0.10 0.09 0.07 0.14 0.19 0.18 0.21 0.22 0.16 0.16 0.27 0.53 0.39 0.35 0.37 0.37 0.37 0.36 0.32 0.31
0.19 0.08 0.11 0.24 0.18 0.14 0.18 0.38 0.53 0.56 0.60 0.70 0.82 0.91 0.75 0.61 0.46 0.43 0.37 0.33 0.29 0.22
0.33 0.36 0.28 0.43 0.74 0.77 0.74 0.88 0.78 0.69 0.82 0.89 0.82 0.70 0.53 0.49 0.36 0.31 0.29 0.24 0.12 0.05
0.77 0.92 1.03 0.94 0.87 1.12 0.88 0.81 0.71 0.57 0.48 0.45 0.43 0.29 0.18 0.12 0.10 0.08 0.05 0.03 0.01 0.02
0.74 0.83 0.89 0.89 0.84 0.74 0.60 0.60 0.49 0.38 0.33 0.24 0.14 0.08 0.05 0.05 0.03 0.02 0.01 0.00 0.00 0.02
0.75 0.69 0.53 0.46 0.44 0.31 0.23 0.21 0.15 0.08 0.05 0.02 0.01 0.00 0.00 0.00 0.01 0.01 0.02 0.02 0.01 0.01

GFSNIL_prec_precacc_141.txt.gz
Total_Precipitation_Accumulation
1.64 1.57 1.56 1.37 1.38 1.31 1.28 1.41 1.22 1.05 1.32 1.41 1.12 0.86 0.86 0.74 0.56 0.63 0.63 0.67 0.71 0.70
1.23 1.28 1.32 1.13 0.90 0.86 0.92 0.94 0.94 0.84 0.80 0.81 0.74 0.81 0.84 0.82 0.71 0.60 0.57 0.65 0.72 0.76
0.78 0.69 0.74 0.81 0.89 0.83 0.77 0.83 0.88 0.75 0.65 0.50 0.42 0.46 0.51 0.55 0.63 0.72 0.66 0.62 0.67 0.68
0.55 0.62 0.37 0.40 0.58 0.61 0.69 0.65 0.54 0.67 0.82 0.68 0.53 0.52 0.53 0.53 0.58 0.70 0.69 0.67 0.70 0.70
0.55 0.85 0.62 0.46 0.40 0.47 0.55 0.62 0.51 0.40 0.45 0.62 0.68 0.69 0.69 0.85 0.80 0.69 0.74 0.80 0.87 0.82
0.60 0.70 0.64 0.69 0.53 0.31 0.28 0.33 0.35 0.36 0.35 0.34 0.40 0.51 0.68 0.72 0.72 0.76 0.77 0.69 0.68 0.73
0.25 0.28 0.38 0.45 0.54 0.55 0.34 0.27 0.28 0.31 0.35 0.35 0.23 0.27 0.29 0.28 0.36 0.41 0.47 0.49 0.47 0.50
0.19 0.21 0.22 0.36 0.28 0.34 0.42 0.25 0.18 0.17 0.16 0.23 0.24 0.34 0.28 0.21 0.26 0.37 0.48 0.56 0.54 0.51
0.10 0.07 0.10 0.09 0.07 0.14 0.19 0.18 0.21 0.22 0.16 0.16 0.27 0.53 0.39 0.35 0.37 0.37 0.37 0.36 0.32 0.31
0.19 0.08 0.11 0.24 0.18 0.14 0.18 0.38 0.53 0.56 0.60 0.70 0.82 0.91 0.75 0.61 0.46 0.43 0.37 0.33 0.29 0.22
0.33 0.36 0.28 0.43 0.74 0.77 0.74 0.88 0.78 0.69 0.82 0.89 0.82 0.70 0.53 0.49 0.36 0.31 0.29 0.24 0.12 0.05
0.77 0.92 1.03 0.94 0.87 1.12 0.88 0.81 0.71 0.57 0.48 0.45 0.43 0.29 0.18 0.12 0.10 0.08 0.05 0.03 0.01 0.02
0.74 0.83 0.89 0.89 0.84 0.74 0.60 0.60 0.49 0.38 0.33 0.24 0.14 0.08 0.05 0.05 0.03 0.02 0.01 0.00 0.00 0.02
0.75 0.69 0.53 0.46 0.44 0.31 0.23 0.21 0.15 0.08 0.05 0.02 0.01 0.00 0.00 0.00 0.01 0.01 0.02 0.02 0.01 0.01

GFSNIL_prec_precacc_144.txt.gz
Total_Precipitation_Accumulation
1.64 1.57 1.56 1.37 1.38 1.31 1.29 1.41 1.22 1.05 1.32 1.41 1.12 0.86 0.86 0.74 0.57 0.64 0.64 0.68 0.74 0.73
1.23 1.28 1.32 1.13 0.90 0.86 0.93 0.95 0.95 0.84 0.80 0.81 0.74 0.81 0.85 0.82 0.73 0.62 0.60 0.67 0.76 0.81
0.78 0.69 0.74 0.81 0.89 0.84 0.77 0.83 0.88 0.75 0.65 0.50 0.42 0.46 0.51 0.56 0.63 0.73 0.66 0.63 0.70 0.73
0.55 0.62 0.37 0.40 0.58 0.61 0.69 0.65 0.54 0.67 0.82 0.68 0.53 0.52 0.53 0.53 0.58 0.70 0.69 0.67 0.71 0.72
0.55 0.85 0.62 0.46 0.40 0.47 0.55 0.62 0.51 0.40 0.45 0.62 0.68 0.69 0.69 0.85 0.80 0.69 0.74 0.80 0.87 0.82
0.60 0.70 0.64 0.69 0.53 0.31 0.28 0.33 0.35 0.36 0.35 0.34 0.40 0.51 0.68 0.72 0.72 0.76 0.77 0.69 0.68 0.73
0.25 0.28 0.38 0.45 0.54 0.55 0.34 0.27 0.28 0.31 0.35 0.35 0.23 0.27 0.29 0.28 0.36 0.41 0.47 0.49 0.47 0.50
0.19 0.21 0.22 0.36 0.28 0.34 0.42 0.25 0.18 0.17 0.16 0.23 0.24 0.34 0.28 0.21 0.26 0.37 0.48 0.56 0.54 0.51
0.10 0.07 0.10 0.09 0.07 0.14 0.19 0.18 0.21 0.22 0.16 0.16 0.27 0.53 0.39 0.35 0.37 0.37 0.37 0.36 0.32 0.31
0.19 0.08 0.11 0.24 0.18 0.14 0.18 0.38 0.53 0.56 0.60 0.70 0.82 0.91 0.75 0.61 0.46 0.43 0.37 0.33 0.29 0.22
0.33 0.36 0.28 0.43 0.74 0.77 0.74 0.88 0.78 0.69 0.82 0.89 0.82 0.70 0.53 0.49 0.36 0.31 0.29 0.24 0.12 0.05
0.77 0.92 1.03 0.94 0.87 1.12 0.88 0.81 0.71 0.57 0.48 0.45 0.43 0.29 0.18 0.12 0.10 0.08 0.05 0.03 0.01 0.02
0.74 0.83 0.89 0.89 0.84 0.74 0.60 0.60 0.49 0.38 0.33 0.24 0.14 0.08 0.05 0.05 0.03 0.02 0.01 0.00 0.00 0.02
0.75 0.69 0.53 0.46 0.44 0.31 0.23 0.21 0.15 0.08 0.05 0.02 0.01 0.00 0.00 0.00 0.01 0.01 0.02 0.02 0.01 0.01

GFSNIL_prec_precacc_147.txt.gz
Total_Precipitation_Accumulation
1.64 1.57 1.56 1.37 1.38 1.31 1.29 1.41 1.22 1.05 1.32 1.41 1.13 0.87 0.86 0.74 0.57 0.64 0.65 0.69 0.75 0.74
1.23 1.28 1.32 1.13 0.90 0.86 0.93 0.95 0.95 0.84 0.80 0.81 0.74 0.81 0.85 0.82 0.73 0.63 0.61 0.68 0.77 0.82
0.78 0.69 0.74 0.81 0.89 0.84 0.77 0.83 0.88 0.75 0.65 0.50 0.42 0.46 0.51 0.56 0.63 0.73 0.67 0.63 0.71 0.74
0.55 0.62 0.37 0.40 0.58 0.61 0.69 0.65 0.54 0.67 0.82 0.68 0.53 0.52 0.53 0.53 0.58 0.70 0.69 0.67 0.71 0.72
0.55 0.85 0.62 0.46 0.40 0.47 0.55 0.62 0.51 0.40 0.45 0.62 0.68 0.69 0.69 0.85 0.80 0.69 0.74 0.80 0.87 0.82
0.60 0.70 0.64 0.69 0.53 0.31 0.28 0.33 0.35 0.36 0.35 0.34 0.40 0.51 0.68 0.72 0.72 0.76 0.77 0.69 0.68 0.73
0.25 0.28 0.38 0.45 0.54 0.55 0.34 0.27 0.28 0.31 0.35 0.35 0.23 0.27 0.29 0.28 0.36 0.41 0.47 0.49 0.47 0.50
0.19 0.21 0.22 0.36 0.28 0.34 0.42 0.25 0.18 0.17 0.16 0.23 0.24 0.34 0.28 0.21 0.26 0.37 0.48 0.56 0.54 0.51
0.10 0.07 0.10 0.09 0.07 0.14 0.19 0.18 0.21 0.22 0.16 0.16 0.27 0.53 0.39 0.35 0.37 0.37 0.37 0.36 0.32 0.31
0.19 0.08 0.11 0.24 0.18 0.14 0.18 0.38 0.53 0.56 0.60 0.70 0.82 0.91 0.75 0.61 0.46 0.43 0.37 0.33 0.29 0.22
0.33 0.36 0.28 0.43 0.74 0.77 0.74 0.88 0.78 0.69 0.82 0.89 0.82 0.70 0.53 0.49 0.36 0.31 0.29 0.24 0.12 0.05
0.77 0.92 1.03 0.94 0.87 1.12 0.88 0.81 0.71 0.57 0.48 0.45 0.43 0.29 0.18 0.12 0.10 0.08 0.05 0.03 0.01 0.02
0.74 0.83 0.89 0.89 0.84 0.74 0.60 0.60 0.49 0.38 0.33 0.24 0.14 0.08 0.05 0.05 0.03 0.02 0.01 0.00 0.00 0.02
0.75 0.69 0.53 0.46 0.44 0.31 0.23 0.21 0.15 0.08 0.05 0.02 0.01 0.00 0.00 0.00 0.01 0.01 0.02 0.02 0.01 0.01

GFSNIL_prec_precacc_153.txt.gz
Total_Precipitation_Accumulation
1.64 1.57 1.56 1.37 1.38 1.31 1.29 1.41 1.22 1.05 1.32 1.41 1.13 0.87 0.86 0.75 0.57 0.65 0.66 0.70 0.76 0.76
1.23 1.28 1.32 1.13 0.90 0.86 0.93 0.95 0.95 0.84 0.81 0.81 0.74 0.81 0.85 0.82 0.73 0.63 0.62 0.69 0.78 0.83
0.78 0.69 0.74 0.81 0.89 0.84 0.77 0.83 0.88 0.75 0.65 0.50 0.42 0.46 0.51 0.56 0.63 0.73 0.67 0.63 0.71 0.74
0.55 0.62 0.37 0.40 0.58 0.61 0.69 0.65 0.54 0.67 0.82 0.68 0.53 0.52 0.53 0.53 0.58 0.70 0.69 0.67 0.71 0.72
0.55 0.85 0.62 0.46 0.40 0.47 0.55 0.62 0.51 0.40 0.45 0.62 0.68 0.69 0.69 0.85 0.80 0.69 0.74 0.80 0.87 0.82
0.60 0.70 0.64 0.69 0.53 0.31 0.28 0.33 0.35 0.36 0.35 0.34 0.40 0.51 0.68 0.72 0.72 0.76 0.77 0.69 0.68 0.73
0.25 0.28 0.38 0.45 0.54 0.55 0.34 0.27 0.28 0.31 0.35 0.35 0.23 0.27 0.29 0.28 0.36 0.41 0.47 0.49 0.47 0.50
0.19 0.21 0.22 0.36 0.28 0.34 0.42 0.25 0.18 0.17 0.16 0.23 0.24 0.34 0.28 0.21 0.26 0.37 0.48 0.56 0.54 0.51
0.10 0.07 0.10 0.09 0.07 0.14 0.19 0.18 0.21 0.22 0.16 0.16 0.27 0.53 0.39 0.35 0.37 0.37 0.37 0.36 0.32 0.31
0.19 0.08 0.11 0.24 0.18 0.14 0.18 0.38 0.53 0.56 0.60 0.70 0.82 0.91 0.75 0.61 0.46 0.43 0.37 0.33 0.29 0.22
0.33 0.36 0.28 0.43 0.74 0.77 0.74 0.88 0.78 0.69 0.82 0.89 0.82 0.70 0.53 0.49 0.36 0.31 0.29 0.24 0.12 0.05
0.77 0.92 1.03 0.94 0.87 1.12 0.88 0.81 0.71 0.57 0.48 0.45 0.43 0.29 0.18 0.12 0.10 0.08 0.05 0.03 0.01 0.02
0.74 0.83 0.89 0.89 0.84 0.74 0.60 0.60 0.49 0.38 0.33 0.24 0.14 0.08 0.05 0.05 0.03 0.02 0.01 0.00 0.00 0.02
0.75 0.69 0.53 0.46 0.44 0.31 0.23 0.21 0.15 0.08 0.05 0.02 0.01 0.00 0.00 0.00 0.01 0.01 0.02 0.02 0.01 0.01

GFSNIL_prec_precacc_156.txt.gz
Total_Precipitation_Accumulation
1.64 1.57 1.56 1.37 1.38 1.31 1.29 1.41 1.22 1.05 1.32 1.41 1.13 0.87 0.86 0.75 0.58 0.65 0.66 0.70 0.76 0.76
1.23 1.28 1.32 1.13 0.90 0.86 0.93 0.95 0.95 0.84 0.81 0.81 0.74 0.81 0.85 0.83 0.73 0.63 0.62 0.69 0.78 0.83
0.78 0.69 0.74 0.81 0.89 0.84 0.77 0.83 0.88 0.75 0.65 0.50 0.42 0.46 0.51 0.56 0.63 0.73 0.67 0.63 0.71 0.74
0.55 0.62 0.37 0.40 0.58 0.61 0.69 0.65 0.54 0.67 0.82 0.68 0.53 0.52 0.53 0.53 0.58 0.70 0.69 0.67 0.71 0.72
0.55 0.85 0.62 0.46 0.40 0.47 0.55 0.62 0.51 0.40 0.45 0.62 0.68 0.69 0.69 0.85 0.80 0.69 0.74 0.80 0.87 0.82
0.60 0.70 0.64 0.69 0.53 0.31 0.28 0.33 0.35 0.36 0.35 0.34 0.40 0.51 0.68 0.72 0.72 0.76 0.77 0.69 0.68 0.73
0.25 0.28 0.38 0.45 0.54 0.55 0.34 0.27 0.28 0.31 0.35 0.35 0.23 0.27 0.29 0.28 0.36 0.41 0.47 0.49 0.47 0.50
0.19 0.21 0.22 0.36 0.28 0.34 0.42 0.25 0.18 0.17 0.16 0.23 0.24 0.34 0.28 0.21 0.26 0.37 0.48 0.56 0.54 0.51
0.10 0.07 0.10 0.09 0.07 0.14 0.19 0.18 0.21 0.22 0.16 0.16 0.27 0.53 0.39 0.35 0.37 0.37 0.37 0.36 0.32 0.31
0.19 0.08 0.11 0.24 0.18 0.14 0.18 0.38 0.53 0.56 0.60 0.70 0.82 0.91 0.75 0.61 0.46 0.43 0.37 0.33 0.29 0.22
0.33 0.36 0.28 0.43 0.74 0.77 0.74 0.88 0.78 0.69 0.82 0.89 0.82 0.70 0.53 0.49 0.36 0.31 0.29 0.24 0.12 0.05
0.77 0.92 1.03 0.94 0.87 1.12 0.88 0.81 0.71 0.57 0.48 0.45 0.43 0.29 0.18 0.12 0.10 0.08 0.05 0.03 0.01 0.02
0.74 0.83 0.89 0.89 0.84 0.74 0.60 0.60 0.49 0.38 0.33 0.24 0.14 0.08 0.05 0.05 0.03 0.02 0.01 0.00 0.00 0.02
0.75 0.69 0.53 0.46 0.44 0.31 0.23 0.21 0.15 0.08 0.05 0.02 0.01 0.00 0.00 0.00 0.01 0.01 0.02 0.02 0.01 0.01